DUBAISAT 1

Satellite information

Favourite Embed

Satellite Type and Status

PAYLOADIN ORBIT

Key statistics

Satellite DUBAISAT 1 at a glance.

Uptime

5821

Days in orbit

Revolutions

≈ 14.7

Per day

Orbit

SSO

Sun Synchronous Orbit

Inclination

98.0

Latest

Satellite identification and parameters

Extended collection of information and parameters for DUBAISAT 1.

Object identification

Identified? True

Debris? False

Object name: DUBAISAT 1

International designator: 2009-041B

Object number (NORAD): 35682

Object ID (CCSDS): 35682

Country: UNITED ARAB EMIRATES (UAE)

Current information (Y/N): Y

RCS size: LARGE

Orbital parameters

Period: 97.692 minutes

Inclination: 97.9583 deg

SMA: 7026.393 km

Apoapsis: 656.75 km

Periapsis: 639.767 km

RAAN: 320.2225 deg

Eccentricy: 0.0012085

Argument of periapsis: 101.7886 deg

Mean anomaly: 258.4678 deg

Mean motion: 14.74022432 rev/day

Mean motion (dot): 0.00000836 rev/day2

B* drag term: 0.0001346 1/REarth

Two-line elements (TLE)

Creation date: July 5, 2025, 10:46 p.m.

Reference frame: TEME

Reference center: EARTH

Epoch: July 5, 2025, 9:21 p.m. UTC

TLE line 0: 0 DUBAISAT 1

TLE line 1: 1 35682U 09041B 25186.88998673 .00000836 00000-0 13460-3 0 9992

TLE line 2: 2 35682 97.9583 320.2225 0012085 101.7886 258.4678 14.74022432854129

Live tracking on map

Real-time ground track for satellite DUBAISAT 1.

In-orbit conjunctions

There are no conjunctions computed for DUBAISAT 1, at the moment. Check back to stay up to date, as we update our databases every day.

Go to all conjunctions

Associated space launch

Emirati Earth observation satellite. Launched with 5 secondary payloads.

DUBAISAT 1 was lifted into orbit during the mission ‘Dnepr | DubaiSat 1’, on board a Dnepr space rocket.

The launch took place on July 29, 2009, 6:46 p.m. from 109/95.

For more information about the launch, click the button.

Launch to space Dnepr | DubaiSat 1
Dnepr | DubaiSat 1

Agency: N/A

Status: Launch Successful

Launch date: July 29, 2009, 6:46 p.m. UTC

Rocket: Dnepr

Launch pad: 109/95

Location: Baikonur Cosmodrome, Republic of Kazakhstan

...

Latest news about this satellite

There are no fresh news available about this satellite. Check back as we update our databases every day.


Newsletter sign-up

Weekly statistics, charts and insights to help you stay on top of the space industry.